Regional Weather Roundup
Issued by NWS

Home | Current Version | Previous Version | Graphics & Text | Print | Product List | Glossary On
Versions: 1 2 3 4 5 6 7 8 9 10 11 12 13 14 15 16 17 18 19 20 21 22 23 24 25 26 27 28 29 30 31 32 33 34 35 36 37 38 39 40 41 42 43 44 45 46 47 48 49 50
780
ASUS45 KSLC 282310
RWRUT

UTAH REGIONAL WEATHER ROUNDUP
NATIONAL WEATHER SERVICE SALT LAKE CITY UT
500 PM MDT SAT MAY 28 2016

UTZ001>011-023>025-290000-

NORTHERN UTAH

CITY           SKY/WX    TMP DP  RH WIND       PRES   REMARKS
BRIGHAM CITY     N/A     71  31  23 NE3       30.02F
HILL AFB       SUNNY     69  37  31 NW9       30.04F
LOGAN          SUNNY     69  39  33 NW8       30.03F
OGDEN          SUNNY     70  36  28 NW7       30.02F
PROVO AIRPORT  PTSUNNY   70  41  35 VRB6      30.01F
SALT LAKE CITY MOSUNNY   75  39  27 N9        30.00F
VERNAL         CLOUDY    71  36  27 S8        30.03S
WENDOVER       SUNNY     73  36  25 SE9       30.00F
HEBER CITY     PTSUNNY   64  36  34 W8        30.05R
WEST JORDAN    SUNNY     72  43  35 NW10G16   30.03F

$$

UTZ012>022-026-027-290000-

SOUTHERN/CENTRAL UTAH

CITY           SKY/WX    TMP DP  RH WIND       PRES   REMARKS
BLANDING       SUNNY     73  28  18 SW3       30.14S
BRYCE CANYON   CLOUDY    63  27  25 S14G20    30.15S
CEDAR CITY     PTSUNNY   77  25  14 SW14G21   29.99F
DELTA          MOSUNNY   77  28  16 W8        29.98S
HANKSVILLE     CLOUDY    73  36  25 E9G17     30.04S
MILFORD        PTSUNNY   73  33  23 NE13      29.99S
MOAB/CYNLANDS  MOSUNNY   78  28  16 W7        29.96S
PRICE          PTSUNNY   69  32  25 SE12      30.05S
ST GEORGE      MOCLDY    88  32  13 W10       29.85F

$$

REGIONAL REPORTS     COLORADO/ARIZONA

CITY           SKY/WX    TMP DP  RH WIND       PRES   REMARKS
CRAIG, CO      CLOUDY    67  37  33 W8        30.08S
GRAND JUNCTION SUNNY     75  33  21 VRB3      30.00S
RIFLE          CLOUDY    70  33  25 N16G26    30.06R
MONTROSE       SUNNY     72  27  18 VRB5      30.07F
CORTEZ         SUNNY     72  23  16 VRB3      30.06F
PAGE, AZ       MOSUNNY   83  27  13 NE8       29.93F
GRAND CANYON   CLOUDY    68  30  24 NE10      30.10S
KINGMAN        SUNNY     86  26  11 W15G21    29.88F
FLAGSTAFF      MOSUNNY   68  28  22 E6        30.09F

$$

REGIONAL REPORTS    NEVADA/IDAHO/WYOMING

CITY           SKY/WX    TMP DP  RH WIND       PRES   REMARKS
LAS VEGAS, NV  PTSUNNY   91  25   9 S9G20     29.76F
ELY            PTSUNNY   65  33  30 NW8       30.06S
ELKO           SUNNY     72  32  23 NW6       30.00F
POCATELLO, ID  SUNNY     67  26  21 W15       30.07S
BURLEY         SUNNY     65  31  28 W6G17     30.04F
EVANSTON, WY   PTSUNNY   60  30  32 W16       30.12S
ROCK SPRINGS   CLOUDY    61  33  35 NW13G22   30.08S
KEMMERER         N/A     59  30  33 W15G28    30.13S

$$




USA.gov is the U.S. government's official web portal to all federal, state and local government web resources and services.